loading
|

SCOUT A R/B, 2120

Orbit data source: Space-Track

SCOUT A R/B, 2120 is space debris in LEO originally from a launch on Sat, 26 Mar 1966 UTC launched from the Air Force Western Test Range (AFWTR). Debris objects in space refer to the collection of defunct objects orbiting the Earth. Examples of debris include non-operational satellites, rocket bodies, and fragments generated from explosions, collisions, or faulty payload assembly.

Loading next visibility...
Loading greatness...
SCOUT A R/B details
Identifier
2120, 1966-024B
Orbit
LEO
Last TLE update12 hours ago
Origin
Flag of USNASA LaRC (US)
ManufacturerABL
MissionSpacecraft
Bus & MotorALTAIR, Unknown motor
Mass33 kg wet, 33 kg dry
Launch date (UTC)
1966-03-26 (59 years ago)
Launch vehicleUnknown
Launch site
Air Force Western Test Range (AFWTR)
Object type
Payload
Rocket body
Debris
Shape & HBRCyl, 1.5 m
Radar Cross Section0.687 m², Medium (>0.1 m² and < 1m²)

Expand to show TLE details & history

TLE from 12 hours ago
0 SCOUT A R/B
1 02120U 66024B   24278.48939924  .00000524  00000-0  52061-3 0  9992
2 02120  89.8221 183.5797 0149996 280.9061  77.5256 13.72435731926770
Epoch: 2024-10-04T11:44Z
Definitive object data (Epoch: 2024-10-04T11:44:44.094Z)
Latitude-0.00004°
Longitude-6.26335°
Altitude971.535 km
Speed7.377 km/s
True Right ascension12h 14m 19s
True Declination0° 00' 00"
Sunlit
Object was in daylight at TLE epoch
Predictive object data (real-time)
Latitude-6.43199°
Longitude-6.29279°
Altitude963.524 km
Speed7.385 km/s
Apparent Right ascension09h 52m 33s
Apparent Declination-30° 08' 05"
Sunlit
Object is in daylight
Predictive observer data (real-time)
Local Sidereal Time17:53:57
Azimuth262.018° W
Elevation-41.095°
Doppler factor1
Orbital elements
Apogee1,098.343 km
Perigee877.369 km
Semi-major axis7,365.993 km
Eccentricity0.0149996
Inclination89.8221°
RAAN183.5797°
Arg. of periapsis280.9061°
True anomaly79.21043°
Mean anomaly77.5256°
Eccentric anomaly78.36736°
Mean motion3.43318 °/min
BSTAR0.00052061
Period104.86 mins
No data available

SCOUT A R/B Visibility forecast

Observer location: 39.9160978°, -105.1181434

SCOUT A R/B is not visible in the next 10 days
Span
Click to sort rows by Start time (UTC) header in descending order
Start Az.
Max El. time (UTC)
Max El. Az.
Max El.
End time (UTC)
End Az.